Regional Weather Roundup
Issued by NWS

Home | Current Version | Previous Version | Text Only | Print | Product List | Glossary Off
Versions: 1 2 3 4 5 6 7 8 9 10 11 12 13 14 15 16 17 18 19 20 21 22 23 24 25 26 27 28 29 30 31 32 33 34 35 36 37 38 39 40 41 42 43 44 45 46 47 48 49 50

651
ASUS43 KTOP 231608
RWRKS

WEATHER ROUNDUP FOR KANSAS
NATIONAL WEATHER SERVICE GOODLAND KS
1100 AM CDT MON APR 23 2018

NOTE:  "FAIR" INDICATES FEW OR NO CLOUDS BELOW 12,000 FEET WITH NO
SIGNIFICANT WEATHER AND/OR OBSTRUCTIONS TO VISIBILITY.

KSZ001>006-013>018-027>032-041>047-231700-
NORTHWEST KANSAS

CITY           SKY/WX    TMP DP  RH WIND       PRES   REMARKS
GOODLAND       SUNNY     56  40  55 S18G30    30.15F
HAYS           SUNNY     62  40  44 VRB7      30.18S
HILL CITY      SUNNY     60  43  53 VRB3      30.19S
RUSSELL        SUNNY     61  42  49 S3        30.17R
$$

KSZ061>065-074>080-084>089-231700-
SOUTHWEST KANSAS

CITY           SKY/WX    TMP DP  RH WIND       PRES   REMARKS
DODGE CITY     SUNNY     59  42  53 SE3       30.18S
ELKHART        SUNNY     59  44  57 S12       30.18S
GARDEN CITY    SUNNY     56  38  50 SW6       30.18R
GREAT BEND     SUNNY     60  42  51 NE6       30.18S
LIBERAL        SUNNY     58  41  53 S5        30.20S
PRATT          SUNNY     61  41  48 N5        30.18S
$$

KSZ066>073-081>083-090>101-231700-
SOUTHEAST KANSAS

CITY           SKY/WX    TMP DP  RH WIND       PRES   REMARKS
CHANUTE        CLOUDY    64  44  48 N6        30.10S
COFFEYVILLE    CLOUDY    63  46  54 N10       30.09S
HUTCHINSON     SUNNY     65  40  39 N8        30.15S
MEDICINE LODGE   N/A     65  43  44 N9        30.15S
NEWTON         MOSUNNY   62  36  37 N10       30.15S
PARSONS        CLOUDY    62  46  55 N7        30.10S
WICHITA INTL   PTSUNNY   64  41  42 N10       30.14S
WICHITA JABRA  CLOUDY    61  39  44 N7        30.14S
WICHITA MCCONL CLOUDY    63  36  36 NE8       30.14R
WINFIELD       CLOUDY    64  44  48 N9        30.13S
$$

KSZ007>012-019>026-033>040-048>060-102>105-231700-
NORTHEAST KANSAS

CITY           SKY/WX    TMP DP  RH WIND       PRES   REMARKS
CONCORDIA      SUNNY     64  37  36 NE5       30.16F
EMPORIA        SUNNY     62  42  47 MISG      30.12F
LAWRENCE       SUNNY     69  38  32 N13G20    30.11F
MANHATTAN      MOSUNNY   62  36  37 E3        30.14F
MARYSVILLE     SUNNY     68  32  26 NE8       30.15S
OLATHE IND     MOSUNNY   66  44  45 N12       30.10F
OLATHE EXE     CLOUDY    62  43  49 N10       30.10S
SALINA         SUNNY     63  36  36 CALM      30.17R
TOPEKA BILLARD PTSUNNY   66  40  38 N8        30.13S
TOPEKA FORBES  CLOUDY    65  39  38 N9        30.13R
$$




USA.gov is the U.S. government's official web portal to all federal, state and local government web resources and services.